EHI
5 9 16 24 24 14 4 1 0 0 0 0 0 0 0 0 0 0 2 5 5 3 2 4 4 4 3 3 3 3 2 1 0 0 0 0 0 0 0 1 1 1 0 0 0 1 2 3 3
7 12 19 21 16 7 2 0 0 0 0 0 0 0 0 0 0 1 2 4 3 2 3 3 4 3 3 3 3 3 2 1 0 0 0 0 0 0 1 1 2 2 1 0 0 0 1 2 3
13 19 23 19 9 2 0 0 0 0 0 0 0 0 0 0 0 1 2 2 2 3 4 4 4 3 3 3 3 1 1 0 0 0 0 0 1 2 2 3 3 3 1 0 0 0 0 1 2
24 28 26 15 6 1 0 0 0 0 0 0 0 0 0 0 0 0 0 0 2 4 5 5 5 4 3 3 3 1 0 0 0 1 1 1 1 3 4 4 4 4 2 1 0 0 0 1 1
34 32 22 9 2 0 0 0 0 0 0 0 0 0 0 0 0 0 0 0 2 4 5 6 6 5 4 4 4 2 1 2 2 1 0 1 1 3 4 4 4 4 3 2 0 0 0 1 2
32 24 12 3 0 0 0 0 0 0 0 0 0 0 1 1 0 0 0 0 1 3 4 6 7 6 4 4 4 3 3 4 2 1 0 1 1 2 3 2 2 3 2 1 0 0 0 1 1
21 14 5 1 0 0 0 0 0 0 0 0 0 1 2 2 0 0 0 0 1 2 2 4 7 7 5 4 4 5 5 4 2 2 2 2 2 2 3 2 2 2 2 1 0 0 0 0 0
10 6 2 0 0 0 0 0 0 0 0 0 1 2 3 1 0 0 0 0 0 0 0 2 5 6 7 6 5 6 5 4 4 5 5 4 3 3 3 2 2 3 2 1 0 1 1 1 2
3 2 1 0 0 0 0 0 0 0 0 1 2 2 2 1 1 1 1 1 0 0 0 0 2 5 6 6 6 6 6 4 4 7 8 6 3 2 2 3 4 4 3 2 2 3 4 4 5
2 1 0 0 0 0 0 1 1 0 1 2 3 2 2 3 4 3 2 1 0 0 0 0 1 3 5 5 5 5 6 5 6 8 8 5 2 1 2 5 6 5 4 3 3 5 6 6 6
1 0 0 1 0 0 1 2 2 2 3 3 4 4 4 4 4 3 1 1 1 2 2 1 1 3 4 4 3 3 6 9 11 11 8 3 2 1 3 6 7 6 5 4 4 5 5 5 5
1 1 1 1 0 0 1 2 3 5 5 5 5 6 5 4 3 2 0 1 3 5 5 4 4 5 7 7 4 3 6 10 12 12 9 5 3 2 3 6 7 5 4 4 4 3 2 3 4
2 2 1 0 0 0 1 1 3 5 6 6 7 8 6 5 4 3 2 4 6 8 10 9 9 11 11 10 8 6 7 8 8 8 8 7 6 5 6 9 8 4 3 4 4 2 1 2 2
3 2 1 0 0 0 0 1 2 3 4 5 8 9 7 5 5 5 5 7 10 12 13 12 12 15 15 13 10 8 7 7 7 8 10 9 8 8 9 10 9 6 5 5 4 2 1 1 1
2 1 0 0 0 0 1 2 3 3 3 3 6 8 6 4 5 6 7 9 13 15 16 14 12 15 19 15 11 7 5 6 9 14 16 14 11 11 10 8 7 6 6 5 4 2 1 0 0
2 1 0 0 0 0 2 5 6 4 3 2 3 6 6 5 6 7 8 10 15 19 22 18 13 16 21 18 12 7 4 5 10 16 19 17 15 13 10 8 7 6 4 4 4 3 3 3 2
1 0 0 0 0 0 2 6 9 7 5 4 4 6 7 8 9 11 12 15 21 27 29 25 18 20 22 19 13 8 5 7 11 16 19 19 18 14 10 9 8 6 4 3 3 4 6 6 4
0 0 0 0 0 0 1 6 11 10 9 8 8 8 11 14 17 19 21 23 27 34 36 31 26 26 26 20 13 9 7 9 12 16 19 20 19 15 11 9 10 8 5 4 4 5 6 5 4
0 0 0 0 0 0 1 6 11 11 11 11 10 11 14 20 25 26 28 29 32 38 41 38 33 31 29 23 15 11 10 12 14 15 18 19 18 15 11 9 10 10 9 8 8 8 6 3 2
0 0 0 1 0 0 1 4 8 10 10 10 11 12 17 25 32 35 34 33 36 42 45 43 38 34 30 25 19 15 14 15 14 14 18 19 17 13 10 10 11 11 13 13 12 11 8 4 3
0 0 0 0 0 0 1 3 7 9 8 8 8 11 18 27 37 41 39 36 39 44 46 45 42 36 31 27 22 18 18 17 15 18 24 25 18 12 11 12 13 13 14 14 14 14 11 8 6
0 0 0 0 0 0 1 3 7 9 8 6 6 9 18 28 38 42 40 38 39 41 44 45 45 40 34 30 25 21 21 19 17 22 30 31 22 13 11 13 15 14 13 13 14 14 15 13 11
0 0 0 0 0 0 1 2 5 9 10 8 6 9 18 28 36 40 39 38 37 38 41 44 46 44 40 34 27 23 23 21 20 24 32 33 26 17 11 12 16 15 14 13 12 12 14 15 14
0 0 0 0 0 0 0 2 6 10 13 13 10 12 20 27 35 40 40 39 38 38 40 43 44 44 41 35 28 24 22 22 22 25 29 30 27 22 16 15 19 20 16 13 12 12 13 14 16
0 0 0 0 0 1 1 3 7 11 14 15 14 16 22 26 31 37 40 40 41 41 42 43 44 43 40 36 30 25 22 21 22 25 27 26 24 24 23 23 25 25 20 15 16 18 16 15 16
0 0 0 0 0 0 1 4 7 10 13 14 15 17 19 21 25 30 35 39 40 40 41 44 45 43 39 36 33 27 23 22 22 24 25 24 22 24 27 29 29 28 23 19 22 24 21 19 19
0 0 0 0 0 0 2 6 8 10 12 13 15 16 16 17 21 26 31 36 38 37 38 42 45 43 39 36 33 27 23 22 22 22 22 23 24 24 27 29 28 27 25 23 24 24 23 22 20
0 0 0 0 0 0 2 6 9 10 10 11 13 16 17 18 21 23 28 33 35 35 37 40 43 42 39 35 30 25 23 21 19 17 19 23 26 28 29 28 27 27 26 24 22 20 20 20 18
0 0 0 0 0 0 1 4 7 8 8 8 11 14 17 19 20 21 25 29 31 33 37 39 40 39 36 33 29 26 25 22 18 16 19 23 27 29 30 29 29 29 28 24 21 18 19 17 15
0 0 0 0 0 0 1 3 5 7 7 7 9 12 15 19 20 20 22 25 27 30 35 38 37 35 33 31 29 28 26 23 20 19 21 25 27 28 28 29 30 30 28 26 22 20 18 15 13
Wind_Speed
9 11 9 5 5 2 7 9 11 12 13 13 14 14 16 15 11 9 8 11 12 12 11 11 12 12 12 12 12 12 12 11 10 10 10 9 9 8 8 8 8 8 8 8 7 7 7 6 6
9 10 7 4 3 4 8 8 12 13 11 12 14 15 16 16 13 11 9 10 12 13 11 11 12 12 12 12 12 11 11 11 11 10 10 9 9 8 8 7 7 7 7 7 7 6 6 5 5
11 11 6 4 2 7 9 9 11 12 10 12 13 14 12 12 12 10 10 11 12 13 12 12 12 12 11 11 11 11 11 11 11 10 9 9 8 8 7 7 7 6 6 5 6 5 5 5 5
7 7 5 1 7 9 10 8 10 11 11 12 12 12 12 11 11 12 11 11 13 13 13 12 12 12 11 11 11 11 11 10 10 10 9 8 7 7 7 6 6 5 5 4 4 4 4 4 5
8 5 2 3 8 10 9 9 10 11 12 14 15 15 13 12 13 13 11 10 12 13 13 12 12 12 12 12 11 11 10 10 10 9 8 8 7 7 6 6 5 5 5 4 4 4 3 4 5
4 3 1 5 9 10 9 9 12 12 12 13 14 14 12 12 11 11 11 10 11 13 14 12 13 13 13 12 12 11 10 10 9 9 8 7 7 6 6 5 5 4 4 3 3 3 3 4 5
5 2 2 6 8 10 10 9 10 11 10 11 12 13 11 11 10 10 10 10 11 11 12 11 12 12 13 12 12 11 10 10 9 8 7 6 6 6 6 5 4 3 3 3 3 2 3 4 4
3 2 3 5 8 9 9 10 10 11 10 10 9 10 10 11 10 10 10 9 10 10 9 9 10 11 10 11 12 11 10 9 8 7 6 6 5 5 6 5 4 3 3 2 1 2 3 4 5
3 0 3 5 8 7 7 9 10 11 11 11 11 13 13 13 12 10 9 8 8 8 8 7 8 9 9 9 12 10 10 8 7 5 6 5 3 3 4 5 5 4 3 2 2 2 3 5 7
1 2 6 6 7 7 6 8 8 9 10 11 12 14 14 12 11 10 9 8 8 7 7 6 7 6 7 7 7 5 6 6 4 3 3 2 1 1 2 5 5 4 3 3 4 4 4 5 4
4 4 4 5 6 6 7 6 8 9 8 10 11 13 12 11 9 8 9 8 8 7 6 6 6 5 5 5 4 3 3 4 4 3 2 2 1 1 2 2 3 3 4 3 3 4 3 2 1
4 4 4 4 3 5 7 7 8 9 10 11 11 12 11 10 8 7 8 8 8 7 6 5 6 5 4 4 3 3 3 3 3 3 2 2 1 1 1 1 1 1 1 1 1 1 1 1 1
1 3 4 3 3 5 7 7 8 9 10 11 12 12 11 9 8 7 7 8 8 7 6 5 6 5 3 2 1 2 2 3 4 3 2 1 1 1 1 0 0 0 0 0 1 1 1 1 1
1 2 3 3 3 4 5 6 7 9 9 10 11 10 9 8 8 8 7 7 7 6 6 5 6 5 3 1 0 1 2 2 3 3 3 2 1 1 0 1 0 1 0 0 0 0 0 0 0
3 2 2 2 4 3 4 3 6 8 10 10 10 10 10 8 8 8 7 7 7 6 5 5 5 6 3 2 1 1 1 2 2 3 3 2 1 1 1 0 1 0 0 0 0 0 0 1 0
6 5 3 4 5 5 4 3 7 8 8 9 9 9 9 8 8 8 7 7 7 6 5 4 4 5 3 1 1 0 0 1 1 2 3 2 1 1 1 1 0 1 1 1 1 1 0 0 0
8 6 4 5 4 4 3 4 7 8 8 9 9 9 9 8 7 7 8 8 7 6 5 4 3 4 4 2 1 0 0 0 1 1 2 2 1 1 1 1 0 1 1 0 1 1 1 0 0
5 4 3 2 3 3 2 5 8 7 7 8 8 8 8 8 7 7 7 8 8 7 6 4 3 3 3 2 1 0 0 0 0 1 1 2 1 1 1 1 1 1 1 0 1 1 0 1 1
6 5 4 1 2 3 4 5 7 7 7 8 8 8 8 8 8 7 6 7 8 7 6 5 4 3 2 2 2 1 1 1 1 1 2 2 1 1 1 1 1 1 1 0 1 0 1 1 1
7 7 3 3 3 4 4 5 6 8 8 9 9 9 9 9 9 8 7 7 8 7 6 5 4 4 3 2 1 1 1 1 1 0 1 2 1 1 2 1 1 1 1 1 1 1 1 1 1
8 7 4 4 6 7 5 5 6 7 7 7 8 9 9 10 10 10 8 7 7 7 6 6 5 4 3 2 1 1 1 1 1 1 1 1 1 1 1 1 1 1 1 1 1 2 2 2 1
7 5 6 7 8 6 6 4 5 7 5 6 6 7 9 9 10 10 9 8 7 7 7 5 6 5 3 3 2 2 2 1 1 1 1 2 2 2 1 1 1 1 1 1 2 1 2 2 2
8 7 8 9 9 8 6 4 3 7 7 5 5 6 8 8 9 10 10 9 7 7 7 6 5 5 4 3 2 2 1 1 1 1 2 2 2 2 1 1 1 1 1 1 2 1 2 1 2
8 9 10 10 9 9 7 5 3 5 8 7 5 5 7 8 8 8 8 8 7 7 6 6 6 4 4 3 2 2 1 1 1 1 2 2 2 1 1 1 1 1 1 2 2 2 2 2 2
8 9 6 7 7 7 7 5 3 5 6 8 8 6 6 7 8 8 8 7 6 6 6 6 6 5 4 3 2 2 2 2 2 2 1 1 2 2 1 1 1 1 1 2 1 1 2 2 2
8 10 8 7 8 7 3 1 5 7 7 7 8 9 8 7 7 7 7 7 6 6 5 6 7 5 5 4 3 2 1 2 1 2 1 1 1 1 2 1 1 1 1 2 1 2 2 1 2
9 10 10 9 10 10 3 3 6 6 6 6 7 7 7 6 6 7 6 6 6 6 5 5 6 5 5 5 4 3 2 2 2 1 2 1 0 1 1 1 1 1 1 1 1 1 2 1 1
10 9 8 8 7 9 6 3 4 5 5 5 6 7 6 6 6 6 6 6 5 6 6 6 6 5 5 4 4 3 2 2 1 1 1 1 0 1 1 1 0 0 0 1 1 1 1 1 1
8 9 8 8 9 8 7 0 4 6 5 5 6 6 6 5 5 5 5 5 5 5 5 5 5 4 4 4 3 2 3 2 2 1 1 0 0 0 1 0 0 1 0 0 1 2 1 1 2
9 9 9 7 7 9 8 1 2 4 4 4 6 6 5 5 5 5 4 4 3 3 4 4 4 4 3 3 3 3 3 2 2 2 1 1 1 1 1 1 1 2 1 1 1 2 2 2 2
Wind_Direction
203 217 219 237 251 223 62 62 70 70 65 60 61 66 62 56 60 83 103 103 108 109 108 104 98 98 102 103 104 104 103 102 102 102 103 105 107 109 109 110 112 116 121 125 125 126 127 129 135
225 225 225 236 252 72 67 67 73 72 74 76 70 71 70 69 78 95 101 110 112 111 109 103 103 101 102 104 104 105 104 100 100 99 98 100 102 106 106 107 110 113 119 131 135 137 134 136 146
250 246 248 235 69 72 75 75 83 86 88 85 76 63 61 74 84 100 110 114 108 106 107 107 109 106 105 106 106 106 104 102 101 99 98 98 100 104 103 106 109 112 118 131 139 143 145 149 157
237 232 235 223 76 76 85 85 88 88 81 79 81 78 72 74 94 107 112 113 111 111 110 112 114 112 111 112 110 110 108 105 105 104 101 102 104 104 103 106 109 115 120 127 137 141 148 156 167
234 254 242 80 81 78 80 91 87 84 82 80 83 90 88 86 99 109 112 110 109 112 112 117 118 119 119 117 114 113 111 111 110 107 108 107 108 107 104 106 109 116 118 126 131 138 151 163 177
252 262 318 82 85 88 85 86 87 85 90 95 95 95 96 102 101 107 110 106 108 114 116 119 122 124 124 122 118 115 115 114 114 113 114 113 113 115 119 111 111 112 115 128 150 152 159 176 185
243 278 54 85 89 83 83 81 87 91 85 88 98 101 110 111 113 112 110 107 106 107 117 127 131 130 129 127 125 124 123 122 122 124 124 122 124 128 129 126 128 123 117 113 142 154 184 183 199
265 329 50 73 85 83 87 84 83 89 84 95 102 105 120 124 123 115 111 105 104 109 118 128 131 135 139 137 136 135 135 133 133 136 137 137 143 148 147 144 142 138 138 137 140 184 209 207 216
235 344 56 74 87 88 87 89 89 91 88 81 84 104 121 130 127 124 117 115 110 110 116 128 133 135 136 133 137 145 145 142 145 149 156 165 171 162 162 145 150 155 161 182 213 227 241 231 223
118 57 70 80 100 114 99 98 101 99 95 90 92 106 121 130 133 133 129 127 118 112 117 119 115 121 129 124 132 148 145 142 149 134 145 166 169 166 137 140 163 178 189 208 224 236 248 246 233
97 98 84 84 101 110 99 93 98 100 102 105 115 124 129 133 138 136 131 125 122 117 104 103 104 103 101 106 130 133 134 140 137 127 144 148 145 144 127 146 175 199 208 225 208 222 240 237 212
90 86 91 83 95 103 102 98 91 91 99 111 120 129 133 141 144 140 130 126 126 121 115 109 95 83 84 98 120 136 134 135 131 132 137 135 146 135 121 143 182 193 195 194 238 218 218 14 20
96 110 108 106 92 102 108 107 101 97 104 118 128 133 139 141 137 126 120 121 121 123 123 111 101 88 78 81 128 124 121 135 127 136 133 131 129 99 92 104 90 37 65 153 308 328 14 33 360
128 117 126 138 118 119 110 115 113 116 123 129 131 135 137 138 135 127 122 123 120 119 121 119 121 116 113 111 62 99 133 120 127 139 133 145 121 94 86 127 83 35 356 358 210 266 325 56 22
258 211 156 185 162 154 125 108 117 134 138 137 138 138 136 138 135 134 133 132 128 126 125 130 137 130 137 147 190 164 149 137 154 137 126 143 141 139 195 198 143 207 226 294 290 283 253 181 163
269 237 199 208 200 169 181 155 146 150 147 142 143 141 140 140 141 139 141 137 135 135 133 142 148 137 141 154 211 170 142 127 137 135 138 151 146 174 255 228 160 206 198 179 192 226 196 59 29
251 242 221 198 196 175 182 152 157 162 158 149 149 148 147 147 149 145 149 145 139 134 134 135 131 130 139 149 135 58 314 142 151 143 140 146 179 193 258 289 330 271 274 257 268 97 112 111 338
261 250 238 178 171 191 179 163 170 176 162 151 153 154 155 155 155 150 150 146 140 137 135 134 136 124 131 134 141 187 275 267 189 131 126 134 195 212 253 243 302 308 312 352 22 18 333 243 245
289 294 311 320 191 230 217 191 175 168 173 163 165 164 163 161 158 152 150 147 145 142 140 143 144 129 131 145 169 179 207 213 195 161 136 153 213 226 256 307 288 290 302 276 261 211 279 262 236
280 282 273 256 249 251 237 208 175 173 188 174 172 172 168 164 160 156 155 151 147 142 146 145 144 143 152 163 182 183 193 219 169 116 139 169 211 238 224 220 279 252 252 267 289 292 272 259 227
277 286 286 272 272 253 248 226 192 172 179 169 174 174 171 168 163 159 159 159 154 151 153 160 155 152 161 169 165 196 194 216 192 177 165 187 208 217 276 239 276 277 242 222 254 267 255 265 264
277 284 285 266 257 261 241 252 198 171 178 176 176 177 170 168 164 162 162 163 165 161 160 151 153 152 162 177 185 198 193 214 221 191 170 188 203 207 203 225 245 280 295 270 257 246 283 272 273
290 297 283 275 270 272 253 240 205 176 178 184 195 172 160 156 159 160 164 167 169 163 161 153 150 156 163 175 192 218 212 222 228 193 174 187 192 201 196 188 221 247 267 265 287 313 288 295 290
279 282 275 265 260 261 259 262 209 180 170 162 174 157 149 148 151 153 164 158 160 154 151 149 146 152 159 171 187 210 237 242 252 215 179 196 191 203 201 183 209 245 263 266 269 276 274 269 277
252 262 270 263 252 243 236 242 150 131 132 129 145 141 137 141 150 154 155 153 157 153 152 148 145 154 160 166 181 207 238 233 250 257 205 208 202 188 182 186 192 253 272 273 272 264 271 267 275
268 269 271 284 290 291 255 231 115 107 114 123 132 131 138 149 153 151 152 154 151 153 155 150 152 161 166 170 186 196 222 232 235 256 270 211 246 136 142 168 177 222 253 265 265 265 254 263 275
267 271 281 278 277 280 251 165 139 109 111 122 125 128 137 141 141 143 148 149 155 157 152 149 147 163 170 174 183 183 190 234 259 227 249 278 29 122 123 137 153 226 262 291 303 299 305 328 294
252 278 286 280 279 283 284 225 151 153 149 146 139 136 132 135 136 136 140 141 156 164 155 152 154 162 170 177 189 187 195 215 251 254 226 238 209 50 96 128 164 216 271 327 312 314 333 347 320
246 256 270 283 288 291 286 250 139 146 144 143 136 134 136 139 133 127 130 134 149 147 147 149 146 159 169 181 179 187 185 209 214 230 267 242 270 187 184 194 267 265 242 255 280 291 288 292 294
262 263 261 266 275 283 289 315 83 114 120 136 131 124 125 132 130 127 121 124 123 131 136 143 153 168 171 168 177 185 173 194 212 218 235 239 223 222 205 209 230 260 245 232 250 265 274 267 275